This demonstration page uses our WeatherBlox Daily Observations layout. Learn more.

Left ArrowRight Arrow

39.01783, -85.05884

Hourly Observations for May 6, 2018

Temp ( °F °C ) Dew Point ( °F °C ) Humidity (%) Winds ( mph kmh ) Pressure ( in mb ) Visibility ( mi km ) Precip ( " mm )
12:52 am 00:52 Cloudy 57 13.9 55 12.8 93 93 E 6 9 29.96 1015 10 16 0.00 0.00
1:52 am 01:52 Cloudy 57 13.9 54 12.2 90 90 Calm 29.96 1014 10 16 0.00 0.00
2:52 am 02:52 Cloudy 56 13.3 54 12.2 93 93 W 3 6 29.96 1015 7 11 0.00 0.00
3:52 am 03:52 Cloudy 56 13.3 54 12.2 93 93 NNW 5 7 29.96 1015 7 11 0.00 0.00
4:52 am 04:52 Cloudy 56 13.3 54 12.2 93 93 NW 6 9 29.96 1015 7 11 0.00 0.00
5:52 am 05:52 Cloudy 56 13.3 54 12.2 93 93 NW 8 13 29.97 1015 7 11 0.00 0.00
6:52 am 06:52 Cloudy with Mist and Fog 57 13.9 55 12.8 93 93 NNW 6 9 29.96 1015 4 6 0.00 0.00
7:52 am 07:52 Cloudy with Mist and Fog 56 13.3 54 12.2 93 93 Calm 29.96 1015 3 5 0.00 0.00
8:52 am 08:52 Cloudy with Haze 61 16.1 56 13.3 84 84 Calm 29.96 1015 5 8 0.00 0.00
9:52 am 09:52 Cloudy 64 17.8 57 13.9 78 78 W 3 6 29.96 1015 8 13 0.00 0.00
10:52 am 10:52 Partly Cloudy 68 20 55 12.8 63 63 W 3 6 29.96 1015 10 16 0.00 0.00
11:52 am 11:52 Partly Cloudy 72 22.2 53 11.7 52 52 Calm 29.96 1015 10 16 0.00 0.00
12:52 pm 12:52 Mostly Sunny 74 23.3 52 11.1 46 46 Calm 29.95 1014 10 16 0.00 0.00
1:52 pm 13:52 Partly Cloudy 75 23.9 51 10.6 43 43 VRB 3 6 29.94 1014 10 16 0.00 0.00
2:52 pm 14:52 Partly Cloudy 77 25 51 10.6 40 40 SSW 3 6 29.92 1013 10 16 0.00 0.00
3:52 pm 15:52 Partly Cloudy 78 25.6 55 12.8 45 45 VRB 7 11 29.88 1012 10 16 0.00 0.00
4:10 pm 16:10 Partly Cloudy with Nearby Thunderstorms 77 25 54 12.2 45 45 S 8 13 29.88 1012 10 16 0.00 0.00
4:28 pm 16:28 Mostly Cloudy with Nearby Thunderstorms 76 24.4 54 12.2 47 47 S 6 9 29.88 1012 10 16 0.00 0.00
4:52 pm 16:52 Mostly Cloudy with Nearby Thunderstorms 74 23.3 53 11.7 48 48 S 9 15 29.88 1012 10 16 0.00 0.00
5:01 pm 17:01 Cloudy with Thunderstorms 71 21.7 54 12.2 55 55 SW 12 19 29.88 1012 10 16 0.00 0.03
5:26 pm 17:26 Cloudy with Strong Thunderstorms 61 16.1 54 12.2 78 78 WNW 24 39 29.97 1015 2 3 0.13 3.30
5:52 pm 17:52 Cloudy with Thunderstorms 62 16.7 55 12.8 78 78 NW 9 15 29.95 1014 2 3 0.31 7.87
5:59 pm 17:59 Cloudy with Thunderstorms 62 16.7 56 13.3 80 80 NNW 9 15 29.97 1015 9 14 0.00 0.03
6:16 pm 18:16 Mostly Cloudy with Light Rain 61 16.1 57 13.9 87 87 S 7 11 29.97 1015 10 16 0.00 0.03
6:52 pm 18:52 Cloudy 62 16.7 58 14.4 86 86 Calm 29.95 1014 10 16 0.00 0.03
7:52 pm 19:52 Mostly Cloudy 64 17.8 59 15 84 84 E 3 6 29.94 1014 10 16 0.00 0.00
8:52 pm 20:52 Mostly Cloudy 62 16.7 59 15 90 90 S 3 6 29.97 1015 10 16 0.00 0.00
9:52 pm 21:52 Cloudy with Mist and Fog 61 16.1 59 15 93 93 S 5 7 29.98 1015 6 10 0.00 0.03
10:52 pm 22:52 Cloudy 60 15.6 58 14.4 93 93 S 3 6 29.99 1016 7 11 0.00 0.00
11:52 pm 23:52 Cloudy 59 15 57 13.9 93 93 S 7 11 30.00 1016 10 16 0.00 0.00

Powered by AerisWeather